Location: Unspecified
(0.0000°N, 0.0000°E)
Time: 09:39:44
(UTC+00:00)

Courier 1B Rocket - Pass Details

Date: 24 May 2026
Orbit: 920 x 1201 km, 28.2° (Epoch: 9 June)

Event Time Altitude Azimuth Distance (km) Brightness Sun altitude
Rises 13:40:28 0° 278° (W) 3,658 8.4 57.2°
Reaches altitude 10° 13:43:21 10° 268° (W) 2,751 7.9 56.7°
Maximum altitude 13:49:12 31° 207° (SSW) 1,718 6.6 55.5°
Drops below altitude 10° 13:55:26 10° 146° (SSE) 2,938 7.3 54.3°
Sets 13:58:39 0° 136° (SE) 3,944 7.8 53.7°
